Regional Weather Roundup
Issued by NWS

Home | Current Version | Previous Version | Text Only | Print | Product List | Glossary Off
Versions: 1 2 3 4 5 6 7 8 9 10 11 12 13 14 15 16 17 18 19 20 21 22 23 24 25 26 27 28 29 30 31 32 33 34 35 36 37 38 39 40 41 42 43 44 45 46 47 48 49 50

000
ASUS43 KMPX 230701
RWRMN
WEATHER ROUNDUP FOR MINNESOTA
NATIONAL WEATHER SERVICE TWIN CITIES/CHANHASSEN MN
200 AM CDT MON APR 23 2018


NOTE: "FAIR" INDICATES FEW OR NO CLOUDS BELOW 12,000 FEET WITH NO
SIGNIFICANT WEATHER AND/OR OBSTRUCTIONS TO VISIBILITY. N/A MEANS
CURRENT SKY AND/OR WEATHER CONDITIONS ARE NOT AVAILABLE.

MNZ060>063-068>070-230800-
   Twin Cities Metro

CITY           SKY/WX    TMP DP  RH WIND       PRES   REMARKS
TWIN CITIES    FAIR      46  37  71 SE3       30.24F
ST PAUL        FAIR      42  37  82 CALM      30.26S
BLAINE         FAIR      41  36  81 CALM      30.24S
LAKEVILLE      FAIR      34  34 100 CALM      30.25S
EDEN PRAIRIE   FAIR      44  35  70 CALM      30.23F
SOUTH ST PAUL  FAIR      41  34  74 CALM      30.24F
LAKE ELMO      FAIR      36  34  93 CALM      30.26S
$$
MNZ001>005-007-008-013>017-022>024-027-028-230800-
   Northwest Minnesota

CITY           SKY/WX    TMP DP  RH WIND       PRES   REMARKS
BEMIDJI        FAIR      46  33  61 S6        30.17S
HALLOCK        FAIR      45  43  93 S9        30.08F
ROSEAU         MOCLDY    52  43  71 SW14      30.10S
WARROAD        FAIR      50  41  71 SW10G17   30.10S
THIEF RVR FALL CLOUDY    48  38  68 S15       30.14F
CROOKSTON      MOCLDY    46  39  76 S15       30.14F
FOSSTON        CLOUDY    45  36  70 S13       30.17F
DETROIT LAKES  FAIR      43  34  70 S7        30.20S
MOORHEAD       FAIR      43  37  81 S12       30.19S
PARK RAPIDS    FAIR      41  34  76 CALM      30.19S
MAHNOMEN       FAIR      42  36  78 S12       30.17F
$$
MNZ006-009>011-018-025>026-230800-
   North Central Minnesota

CITY           SKY/WX    TMP DP  RH WIND       PRES   REMARKS
BAUDETTE       FAIR      50  38  63 SW8       30.11S
FLAG ISLAND    FAIR      45  37  76 SW14      30.07S
INTL FALLS     MOCLDY    45  33  63 SW5       30.13F
WASKISH        MOCLDY    52  36  54 SW10      30.15S
BIG FORK       FAIR      37  30  75 SW5       30.18S
LONGVILLE      FAIR      43  36  75 CALM      30.20F
GRAND RAPIDS   FAIR      44  33  65 S6        30.21F
CRANE LAKE     FAIR      30  27  86 CALM      30.18S
ORR            FAIR      45  28  53 S3        30.15F
COOK           FAIR      46  32  57 SW6       30.18F
WALKER         FAIR      45  36  68 SW6       30.19S
$$
MNZ012-019>021-037-230800-
   Northeast Minnesota

CITY           SKY/WX    TMP DP  RH WIND       PRES   REMARKS
DULUTH         FAIR      43  27  53 SW3       30.21F
ELY            FAIR      41  27  56 SW3       30.19S
HIBBING        FAIR      30  25  81 S3        30.19F
EVELETH        FAIR      31  26  82 CALM      30.21F
DULUTH HARBOR  FAIR      34  30  86 CALM      30.24S
TWO HARBORS    FAIR      34  27  75 CALM      30.20S
SILVER BAY     FAIR      30  25  80 CALM      30.20S
GRAND MARAIS     N/A     32  24  72 CALM      30.21F
G MARAIS ARPRT FAIR      28  19  69 CALM      30.20F
$$
MNZ029>031-032-039>041-046>048-054>057-064-230800-
   West Central Minnesota

CITY           SKY/WX    TMP DP  RH WIND       PRES   REMARKS
FERGUS FALLS   FAIR      39  34  81 S8        30.19S
WHEATON        CLEAR     43  36  75 S7        30.22S
MORRIS         CLEAR     39  36  87 SE6       30.21S
ALEXANDRIA     FAIR      42  35  76 S5        30.22F
ELBOW LAKE     FAIR      39  35  84 E6        30.21S
WADENA         FAIR      39  34  81 S5        30.20S
GLENWOOD       FAIR      39  36  87 CALM      30.23S
APPLETON       CLEAR     43  36  75 S3        30.22S
BENSON         CLEAR     34  32  93 CALM      30.24S
ORTONVILLE     CLEAR     37  34  87 S3        30.21F
MADISON        CLEAR     43  37  81 CALM      30.22S
WILLMAR        FAIR      36  36 100 SE5       30.25F
$$
MNZ033>034-036-042>043-049>051-058-059-230800-
   Central Minnesota

CITY           SKY/WX    TMP DP  RH WIND       PRES   REMARKS
ST CLOUD       FAIR      36  34  92 CALM      30.23F
SAUK CENTRE    FAIR      37  34  92 CALM      30.23S
PAYNESVILLE    FAIR      39  38  95 S6        30.23F
AITKIN         FAIR      32  27  80 CALM      30.21S
PINE RIVER     FAIR      34  28  80 CALM      30.24S
BRAINERD       FAIR      33  28  81 CALM      30.22F
STAPLES        FAIR      37  34  87 CALM      30.22S
LONG PRAIRIE   FAIR      34  34 100 CALM      30.23F
LITTLE FALLS   FAIR      34  30  86 CALM      30.23S
LITCHFIELD     FAIR      39  39 100 CALM      30.25S
BUFFALO        FAIR      38  34  86 CALM      30.25S
MAPLE LAKE     FAIR      36  34  94 CALM      30.25S
HUTCHINSON     FAIR      37  37 100 CALM      30.25S FOG
$$
MNZ037-044-045-052-053-230800-
   East Central Minnesota

CITY           SKY/WX    TMP DP  RH WIND       PRES   REMARKS
PRINCETON      FAIR      34  30  86 CALM      30.24F
MORA           FAIR      32  30  93 CALM      30.25S
CAMBRIDGE      FAIR      37  27  65 CALM      30.25S
RUSH CITY      FAIR      36  32  86 CALM      30.24S
MOOSE LAKE     FAIR      32  28  86 CALM      30.21S
HINCKLEY       FAIR      32  30  93 CALM      30.23F
CLOQUET        FAIR      39  27  60 SW5       30.22S
MCGREGOR       FAIR      36  28  75 CALM      30.22S
$$
MNZ071>073-080-081-089-090-097-098-230800-
   Southwest Minnesota

CITY           SKY/WX    TMP DP  RH WIND       PRES   REMARKS
MONTEVIDEO     CLEAR     41  37  87 S7        30.22F
GRANITE FALLS  CLEAR     40  38  91 SE3       30.24F
CANBY          CLEAR     41  36  80 S6        30.22F
MARSHALL       CLEAR     38  33  82 S3        30.23F
REDWOOD FALLS  CLEAR     40  40 100 CALM      30.23S
OLIVIA         CLEAR     39  36  87 CALM      30.23S
PIPESTONE      CLEAR    N/A N/A N/A SE7       30.21F
WINDOM         CLEAR     36  21  55 CALM      30.23S
WORTHINGTON    CLEAR     37  35  92 CALM      30.23F
JACKSON        CLEAR     37  34  87 NE5       30.23S
TRACY          CLEAR     38  35  86 S3        30.23S
SLAYTON        CLEAR     35  33  90 CALM      30.23F
$$
MNZ065>067-074>077-082>085-091>093-230800-
   South Central Minnesota

CITY           SKY/WX    TMP DP  RH WIND       PRES   REMARKS
MANKATO        FAIR      44  38  79 E6        30.24F
NEW ULM        CLEAR     45  37  76 CALM      30.23F
ST JAMES       CLEAR     36  34  93 CALM      30.24F
FAIRMONT       CLEAR     36  35  96 NW5       30.24S
GLENCOE        FAIR      40  41 100 CALM      30.24S FOG
OWATONNA       FAIR      37  36  93 CALM      30.24S
WASECA         FAIR      39  34  81 NE6       30.25S
ALBERT LEA     CLOUDY    39  34  81 CALM      30.23S
$$
MNZ078>079-086>088-094>096-230800-
   Southeast Minnesota

CITY           SKY/WX    TMP DP  RH WIND       PRES   REMARKS
ROCHESTER      FAIR      47  28  47 E8        30.24S
RED WING       FAIR      36  28  75 CALM      30.24F
STANTON        FAIR      36  33  89 CALM      30.24S
DODGE CENTER   FAIR      41  32  70 E5        30.24S
WINONA         FAIR      37  34  87 CALM      30.24S
AUSTIN         FAIR      39  34  81 CALM      30.23S
PRESTON        FAIR      46  26  47 E5        30.25S
$$
ABBREVIATIONS USED IN REMARKS
   TC - TEMPERATURES IN CELSIUS
  WCI - WIND CHILL INDEX
   HX - HEAT INDEX
  VSB - VISIBILITY
$$




USA.gov is the U.S. government's official web portal to all federal, state and local government web resources and services.